Date String (YYYY-MM-DD hh:mm:ss) UTC,Instrument flags,Ambient pressure (hPa),Sample flow (lpm),Bypass flow (lpm),Sample temperature (°C),Ambient temperature (°C),ASC tube jacket temperature (°C),LED temperature (°C),Box temperature (°C),Sample RH (%),Span deviation,Mass concentration (μg/m³),Mass concentration (μg/m³),Mass concentration (μg/m³)
DateTimeUTC,F1_M11,P_M11,Q1_M11,Q2_M11,T1_M11,T2_M11,T3_M11,T4_M11,T5_M11,U1_M11,ZSPAN_M11,X0_M11,X2_M11,X1_M11
2023-01-22 14:00:00,,0819.7,5.02,0.00,22.0,21.2,00.0,30.8,23.7,08.5,0000.0,0001.57,0000.96,0000.77
2023-01-22 14:01:00,,0819.6,4.99,0.00,22.1,22.3,00.0,30.8,24.0,08.5,0000.0,0001.55,0000.95,0000.78
2023-01-22 14:02:00,,0819.6,4.98,0.00,22.2,22.7,00.0,30.9,24.2,08.4,0000.0,0001.67,0000.98,0000.78
2023-01-22 14:03:00,,0819.7,4.99,0.00,22.2,22.2,00.0,30.9,24.1,08.3,0000.0,0001.78,0001.02,0000.79
2023-01-22 14:04:00,,0819.6,5.00,0.00,22.2,21.7,00.0,30.9,24.0,08.3,0000.0,0001.81,0001.05,0000.80
2023-01-22 14:05:00,,0819.7,4.99,0.00,22.2,21.3,00.0,30.9,23.9,08.3,0000.0,0001.75,0001.05,0000.81
2023-01-22 14:06:00,,0819.7,4.99,0.00,22.2,21.0,00.0,30.9,23.8,08.3,0000.0,0001.78,0001.07,0000.82
2023-01-22 14:07:00,,0819.7,5.01,0.00,22.1,20.8,00.0,30.9,23.7,08.4,0000.0,0001.95,0001.11,0000.84
2023-01-22 14:08:00,,0819.7,5.00,0.00,22.1,20.7,00.0,30.9,23.6,08.4,0000.0,0002.37,0001.12,0000.85
2023-01-22 14:09:00,,0819.7,5.00,0.00,22.0,20.5,00.0,30.9,23.5,08.4,0000.0,0002.32,0001.12,0000.86
2023-01-22 14:10:00,,0819.8,5.01,0.00,22.0,20.4,00.0,30.9,23.5,08.4,0000.0,0002.58,0001.17,0000.86
2023-01-22 14:11:00,,0819.8,5.00,0.00,21.9,20.4,00.0,30.9,23.4,08.5,0000.0,0002.57,0001.17,0000.86
2023-01-22 14:12:00,,0819.8,4.99,0.00,21.9,20.9,00.0,30.8,23.6,08.4,0000.0,0002.59,0001.18,0000.87
2023-01-22 14:13:00,,0819.8,5.00,0.00,22.0,21.9,00.0,30.8,23.8,08.3,0000.0,0002.60,0001.18,0000.88
2023-01-22 14:14:00,,0819.8,5.01,0.00,22.1,22.7,00.0,30.8,24.1,08.3,0000.0,0003.01,0001.16,0000.88
2023-01-22 14:15:00,,0819.8,4.99,0.00,22.3,23.0,00.0,30.9,24.3,08.2,0000.0,0003.08,0001.17,0000.88
2023-01-22 14:16:00,,0819.8,5.01,0.00,22.3,22.4,00.0,30.9,24.2,08.2,0000.0,0003.18,0001.19,0000.88
2023-01-22 14:17:00,,0819.8,5.02,0.00,22.3,21.8,00.0,31.0,24.0,08.3,0000.0,0003.20,0001.19,0000.88
2023-01-22 14:18:00,,0819.8,5.00,0.00,22.2,21.3,00.0,31.0,23.9,08.3,0000.0,0003.11,0001.18,0000.88
2023-01-22 14:19:00,,0819.8,4.99,0.00,22.2,21.0,00.0,31.0,23.8,08.3,0000.0,0002.58,0001.16,0000.88
2023-01-22 14:20:00,,0819.7,5.00,0.00,22.1,20.8,00.0,31.0,23.7,08.3,0000.0,0002.50,0001.14,0000.87
2023-01-22 14:21:00,,0819.7,4.99,0.00,22.1,20.7,00.0,31.0,23.6,08.4,0000.0,0002.29,0001.10,0000.88
2023-01-22 14:22:00,,0819.7,4.99,0.00,22.0,20.6,00.0,30.9,23.6,08.4,0000.0,0002.28,0001.11,0000.88
2023-01-22 14:23:00,,0819.7,4.99,0.00,22.0,20.4,00.0,30.9,23.5,08.4,0000.0,0002.35,0001.12,0000.88
2023-01-22 14:24:00,,0819.7,4.99,0.00,21.9,20.3,00.0,30.9,23.5,08.5,0000.0,0002.32,0001.11,0000.88
2023-01-22 14:25:00,,0819.7,5.04,0.00,22.0,21.0,00.0,30.9,23.6,08.5,0000.0,0001.84,0001.11,0000.88
2023-01-22 14:26:00,,0819.8,4.99,0.00,22.1,22.1,00.0,30.8,23.9,08.5,0000.0,0002.19,0001.11,0000.88
2023-01-22 14:27:00,,0819.8,5.00,0.00,22.2,22.7,00.0,30.9,24.1,08.4,0000.0,0002.09,0001.08,0000.88
2023-01-22 14:28:00,,0819.7,4.98,0.00,22.2,22.3,00.0,30.9,24.1,08.4,0000.0,0002.12,0001.10,0000.88
2023-01-22 14:29:00,,0819.7,5.00,0.00,22.2,21.7,00.0,30.9,24.0,08.4,0000.0,0002.06,0001.08,0000.87
2023-01-22 14:30:00,,0819.7,5.00,0.00,22.2,21.3,00.0,30.9,23.9,08.4,0000.0,0002.10,0001.09,0000.87
2023-01-22 14:31:00,,0819.7,5.00,0.00,22.1,21.0,00.0,30.9,23.8,08.5,0000.0,0002.23,0001.11,0000.87
2023-01-22 14:32:00,,0819.7,5.00,0.00,22.1,20.8,00.0,30.9,23.7,08.6,0000.0,0002.23,0001.12,0000.87
2023-01-22 14:33:00,,0819.7,5.00,0.00,22.0,20.7,00.0,30.9,23.6,08.6,0000.0,0002.16,0001.10,0000.86
2023-01-22 14:34:00,,0819.6,4.99,0.00,22.0,20.6,00.0,30.9,23.5,08.5,0000.0,0002.10,0001.07,0000.86
2023-01-22 14:35:00,,0819.7,5.00,0.00,21.9,20.4,00.0,30.9,23.4,08.6,0000.0,0002.07,0001.06,0000.85
2023-01-22 14:36:00,,0819.6,4.99,0.00,21.9,20.5,00.0,30.9,23.4,08.6,0000.0,0002.05,0001.07,0000.85
2023-01-22 14:37:00,,0819.7,5.01,0.00,22.0,21.5,00.0,30.8,23.7,08.6,0000.0,0001.72,0001.06,0000.85
2023-01-22 14:38:00,,0819.7,5.00,0.00,22.1,22.6,00.0,30.8,24.0,08.5,0000.0,0001.63,0001.10,0000.86
2023-01-22 14:39:00,,0819.7,5.00,0.00,22.2,22.9,00.0,30.9,24.2,08.5,0000.0,0001.59,0001.07,0000.85
2023-01-22 14:40:00,,0819.6,4.99,0.00,22.2,22.4,00.0,30.9,24.1,08.5,0000.0,0001.56,0001.05,0000.85
2023-01-22 14:41:00,,0819.6,5.00,0.00,22.2,21.8,00.0,30.9,24.0,08.5,0000.0,0001.51,0001.03,0000.84
2023-01-22 14:42:00,,0819.7,5.01,0.00,22.2,21.3,00.0,30.9,23.9,08.6,0000.0,0001.41,0001.02,0000.83
2023-01-22 14:43:00,,0819.7,4.98,0.00,22.2,21.0,00.0,30.9,23.8,08.6,0000.0,0001.36,0001.00,0000.82
2023-01-22 14:44:00,,0819.7,4.99,0.00,22.1,20.9,00.0,30.9,23.7,08.6,0000.0,0001.38,0001.00,0000.82
2023-01-22 14:45:00,,0819.7,5.00,0.00,22.1,20.7,00.0,30.9,23.6,08.6,0000.0,0001.40,0001.01,0000.82
2023-01-22 14:46:00,,0819.6,4.99,0.00,22.0,20.5,00.0,30.9,23.6,08.7,0000.0,0001.51,0001.05,0000.82
2023-01-22 14:47:00,,0819.6,5.00,0.00,22.0,20.4,00.0,30.9,23.5,08.8,0000.0,0001.60,0001.08,0000.81
2023-01-22 14:48:00,,0819.6,4.99,0.00,21.9,20.3,00.0,30.9,23.5,08.9,0000.0,0001.73,0001.12,0000.80
2023-01-22 14:49:00,,0819.5,5.00,0.00,21.9,20.6,00.0,30.9,23.5,08.9,0000.0,0001.74,0001.09,0000.79
2023-01-22 14:50:00,,0819.5,5.01,0.00,22.0,21.8,00.0,30.8,23.8,09.0,0000.0,0001.74,0001.08,0000.78
2023-01-22 14:51:00,,0819.5,4.99,0.00,22.1,22.6,00.0,30.9,24.1,09.0,0000.0,0001.83,0001.11,0000.78
2023-01-22 14:52:00,,0819.5,4.99,0.00,22.2,22.2,00.0,30.9,24.1,08.9,0000.0,0001.81,0001.10,0000.78
2023-01-22 14:53:00,,0819.5,5.01,0.00,22.2,21.7,00.0,30.9,24.0,09.0,0000.0,0001.75,0001.08,0000.77
2023-01-22 14:54:00,,0819.5,5.01,0.00,22.2,21.4,00.0,30.9,23.9,09.1,0000.0,0001.76,0001.08,0000.77
2023-01-22 14:55:00,,0819.6,4.98,0.00,22.2,21.1,00.0,30.9,23.9,09.2,0000.0,0001.73,0001.06,0000.76
2023-01-22 14:56:00,,0819.6,5.00,0.00,22.1,21.0,00.0,30.9,23.8,09.1,0000.0,0001.67,0001.03,0000.74
2023-01-22 14:57:00,,0819.6,5.01,0.00,22.1,20.8,00.0,30.9,23.8,09.1,0000.0,0001.51,0000.97,0000.73
2023-01-22 14:58:00,,0819.6,5.02,0.00,22.1,20.7,00.0,30.9,23.7,09.2,0000.0,0001.35,0000.90,0000.72
2023-01-22 14:59:00,,0819.6,5.01,0.00,22.0,20.5,00.0,30.9,23.6,09.2,0000.0,0001.17,0000.83,0000.72
